Location: Châteauvieux
(47.2310°N, 1.3828°E)
Time: 00:10:45
(UTC+00:00)

Cosmos 2297 Rocket - Pass Details

Date: 15 May 2026
Orbit: 838 x 842 km, 71.0° (Epoch: 9 June)

Event Time Altitude Azimuth Distance (km) Brightness Sun altitude
Exits shadow 23:28:05 56° 155° (SSE) 993 2.2 -23.5°
Maximum altitude 23:28:56 64° 112° (ESE) 929 2.2 -23.5°
Drops below altitude 10° 23:34:31 10° 32° (NNE) 2,464 5.3 -23.6°
Sets 23:36:59 0° 30° (NNE) 3,404 6.2 -23.6°
